Zurück zum Katalog

STARLINK-34931

AktivKommunikationSSO
NORAD 65398·PAYLOAD·🇺🇸 United States

Gestartet Aug 30, 2025 von Vandenberg Space Force Base

Loading…

Nächste Überflüge (nächste 24 Stunden)

TLE

AktuellSource: CelesTrak SupGP

Epoche: Sep 14, 2026, 14:13 UTC

1 65398C 25191V   26257.59284722  .00047461  00000+0  14732-2 0  2577
2 65398  97.2842 123.7687 0001812  86.5395  64.6007 15.33417220    19

Verfolge STARLINK-34931 in Echtzeit mit AllMySat

Download on the App Store